This is the latest recevied weather packets stored in our database for station/object XW7RMR. If no packets are shown the sender has not sent any weather packets the latest 10 day(s).
| Time | Temp. | Humidity | Pressure | Rain* | Wind** | Luminosity | Snow |
|---|---|---|---|---|---|---|---|
| 1777918121 | 15° C | 79% | 1012.7 hPa | 0 mm | - | 245 W/m² | - |
| 1777917819 | 15° C | 77% | 1012.8 hPa | 0 mm | - | 227 W/m² | - |
| 1777917517 | 15° C | 79% | 1012.7 hPa | 0 mm | - | 207 W/m² | - |
| 1777917214 | 14.44° C | 79% | 1012.7 hPa | 0 mm | - | 222 W/m² | - |
| 1777916912 | 15° C | 77% | 1012.7 hPa | 0 mm | - | 225 W/m² | - |
| 1777916609 | 15° C | 78% | 1012.8 hPa | 0 mm | - | 226 W/m² | - |
| 1777916306 | 14.44° C | 79% | 1012.6 hPa | 0 mm | - | 218 W/m² | - |
| 1777916003 | 15° C | 78% | 1012.5 hPa | 0 mm | - | 212 W/m² | - |
| 1777915700 | 15° C | 79% | 1012.7 hPa | 0 mm | - | 218 W/m² | - |
| 1777915396 | 14.44° C | 80% | 1012.7 hPa | 0 mm | - | 203 W/m² | - |
| 1777915092 | 14.44° C | 79% | 1012.5 hPa | 0 mm | - | 204 W/m² | - |
| 1777914790 | 13.89° C | 81% | 1012.6 hPa | 0 mm | - | 203 W/m² | - |
| 1777914487 | 14.44° C | 81% | 1012.6 hPa | 0 mm | - | 179 W/m² | - |
| 1777914184 | 13.89° C | 82% | 1012.6 hPa | 0 mm | - | 173 W/m² | - |
| 1777913879 | 13.89° C | 81% | 1012.5 hPa | 0 mm | - | 168 W/m² | - |
| 1777913576 | 13.89° C | 82% | 1012.3 hPa | 0 mm | - | 156 W/m² | - |
| 1777913272 | 13.89° C | 82% | 1012.6 hPa | 0 mm | - | 149 W/m² | - |
| 1777912970 | 13.89° C | 83% | 1012.6 hPa | 0 mm | - | 135 W/m² | - |
| 1777912665 | 13.89° C | 83% | 1012.6 hPa | 0 mm | - | 127 W/m² | - |
| 1777912362 | 13.89° C | 82% | 1012.6 hPa | 0 mm | - | 141 W/m² | - |
| 1777912058 | 13.33° C | 83% | 1012.7 hPa | 0 mm | - | 151 W/m² | - |
| 1777911754 | 13.89° C | 83% | 1012.6 hPa | 0 mm | - | 124 W/m² | - |
| 1777911451 | 13.33° C | 83% | 1012.6 hPa | 0 mm | - | 125 W/m² | - |
| 1777911148 | 13.89° C | 83% | 1012.6 hPa | 0 mm | - | 117 W/m² | - |
| 1777910846 | 13.89° C | 84% | 1012.5 hPa | 0 mm | - | 123 W/m² | - |
* Rain latest hour (hover to see other rain measurements)
** Current wind speed in m/s (hover to see current wind gust speed)